Tracking 19250 objects as of 23-Sep-2018
HD Live streaming from Space Station
objects crossing your sky now

FENGYUN 1C DEB

Track FENGYUN 1C DEB now!
10-day predictions


NORAD ID: 33647
Int'l Code: 1999-025DEG
Perigee: 780.3 km
Apogee: 1,190.9 km
Inclination: 98.2 °
Period: 104.7 minutes
Semi major axis: 7356 km
RCS: 0.0163 m2 (small)
Launch date: May 10, 1999
Source: People's Republic of China (PRC)
Launch site: Taiyaun Space Center, China (TSC)

Note: This is SATELLITE DEBRIS
aabbcc
Your satellite tracking list
Your tracking list is empty




NASA's NSSDC Master Catalog

Two Line Element Set (TLE):
1 33647U 99025DEG 18265.24187469 +.00000471 +00000-0 +39125-3 0  9996
2 33647 098.2151 064.8878 0279093 110.4940 252.6405 13.75895397538301
Source of the keplerian elements: AFSPC